|
Cosmos 2208 Rocket - Orbit
|
Little Bennett Regional Park;
15:04:56
| Home | Info | Passes |
|
View from above orbital plane
|
View from above satellite
|
Ground track
|
The orbit data is extracted from the following two-line orbital elements,
1 22081U 92053B 13142.49757579 .00000140 00000-0 60359-4 0 2991
2 22081 074.0454 272.9649 0036969 247.4150 178.4500 14.32919145 85865
| Epoch (UTC): | 22 May 2013 11:56:30 |
| Eccentricity: | 0.0036969 |
| inclination: | 74.0454° |
| perigee height: | 755 km |
| apogee height: | 808 km |
| right ascension of ascending node: | 272.9649° |
| argument of perigee: | 247.4150° |
| revolutions per day: | 14.32919145 |
| mean anomaly at epoch: | 178.4500° |
| orbit number at epoch: | 8586 |
The dashed part of the orbit path shows where the satellite is in the earth's shadow,
|
|